{"data":{"norad_id":61246,"intl_designator":"2024-175D","name":"STARLINK-11308 [DTC]","alt_names":[],"object_type":"PAYLOAD","status":"ACTIVE","operator":null,"country":"US","launch_date":"2024-09-25","launch_site_code":"AFWTR","launch_vehicle":null,"mission":null,"orbit_class":"UNKNOWN","rcs_meters":null,"size_class":null,"mass_kg":null,"dimensions":null,"purposes":["comms"],"wikipedia_slug":null,"has_3d_model":false,"image_url":null,"decayed_at":null,"tle_current":{"epoch":"2026-05-25T03:08:18.990240Z","epoch_age_seconds":57128,"freshness":"FRESH","line1":"1 61246U 24175D   26145.13077535  .00005833  00000+0  52948-4 0  9997","line2":"2 61246  53.1573  39.3476 0000919  66.2510 293.8604 15.69717120 95371","mean_motion":15.6971712,"eccentricity":9.19e-5,"inclination_deg":53.1573,"raan_deg":39.3476,"arg_perigee_deg":66.251,"mean_anomaly_deg":293.8604,"bstar":5.2948e-5,"rev_number":9537,"period_min":91.73627411288,"perigee_km":359.08716797595,"apogee_km":360.32558358842,"semimajor_km":6737.8433757822,"source":"CELESTRAK","updated_at":"2026-05-25T13:38:19.364381Z"}}}